sat.trackr.live / text

‹ back to catalog

CHUANGXIN 20B (CX-20B)

NORAD 58426 · 2023-181B

PAYLOAD ACTIVE UNKNOWN

§ Identity

Operator
Country
PRC
Launch date
2023-11-23
Launch site
XICLF
Launch vehicle
Mass (kg)
RCS (m²)

External: N2YO · Heavens-Above · Gunter

§ Orbital elements

Epoch: 2026-09-21T18:21:01.569600Z

Period
107.34 min
Inclination
49.9605°
Eccentricity
0.0011893
Mean motion
13.41499203 rev/d
Perigee alt
1,094.8 km
Apogee alt
1,112.6 km
Semi-major
7,481.8 km
B*
8.5922e-5
RAAN
332.6297°
Arg perigee
204.8275°
Mean anomaly
155.2031°
Rev number
13,870

§ Raw data

CHUANGXIN 20B (CX-20B)1 58426U 23181B   26264.76460150 -.00000080  00000+0  85922-4 0  99972 58426  49.9605 332.6297 0011893 204.8275 155.2031 13.41499203138704

JSON: /api/v1/satellites/58426 · /tle

For live sub-satellite position, see the globe view (requires WebGL).

§ Visibility from observer

Set your observer location to see the next 7 days of passes ≥ 10°. The values pass through the URL so the page stays shareable.

No JS? Fill the form by hand. The geolocation button needs JavaScript.